Auburn, IN

6:48 AM EST on February 13, 2016 (GMT -0500)
Auburn

Weather History for KGWB - December, 2012

Change the Weather History Date:

Monday, December 31, 2012

  Actual Average (KFWA) Record (KFWA)
Temperature  
Mean Temperature 28 °F 26 °F  
Max Temperature 33 °F 33 °F 61 °F (1951)
Min Temperature 24 °F 19 °F -14 °F (1976)
Degree Days  
Heating Degree Days 36 39  
Month to date heating degree days 1111  
Since 1 July heating degree days 2328  
Cooling Degree Days 0 0  
Month to date cooling degree days 0  
Year to date cooling degree days 809  
Moisture  
Dew Point 25 °F    
Average Humidity 79    
Maximum Humidity 93    
Minimum Humidity 64    
Precipitation  
Precipitation 0.00 in 0.08 in 1.25 in (1978)
Month to date precipitation 2.77  
Year to date precipitation 38.34  
Snow  
Snow 0.00 in 0.30 in 3.70 in (1969)
Month to date snowfall 8.5  
Since 1 July snowfall 10.6  
Snow Depth -    
Sea Level Pressure  
Sea Level Pressure 30.06 in    
Wind  
Wind Speed 8 mph (SW)    
Max Wind Speed 14 mph    
Max Gust Speed 21 mph    
Visibility 9 miles    
Events Snow    
T = Trace of Precipitation, MM = Missing Value Source: NWS Daily Summary

Daily Weather History Graph

Daily Weather History Graph

Search for Another Location

Airport or City:

Trip Planner

Search our weather history database for the weather conditions in past years. The results will help you decide how hot, cold, wet, or windy it might be!

Date:

Astronomy

Dec. 31, 2012 Rise Set
Actual Time 8:06 AM EST 5:21 PM EST
Civil Twilight 7:34 AM EST 5:52 PM EST
Nautical Twilight 7:00 AM EST 6:27 PM EST
Astronomical Twilight 6:26 AM EST 7:00 PM EST
Moon 8:53 PM EST (12/31) 9:45 AM EST (12/31)
Length of Visible Light 10h 17m
Length of Day
9h 15m
Waning Gibbous, 90% of the Moon is Illuminated
Dec 31
Waning Gibbous
Jan 4
Last Quarter
Jan 11
New
Jan 18
First Quarter
Jan 26
Full

Hourly Weather History & Observations

Time (EST) Temp. Windchill Dew Point Humidity Pressure Visibility Wind Dir Wind Speed Gust Speed Precip Events Conditions
12:15 AM 24.8 °F 17.9 °F 17.6 °F 74% 30.21 in 10.0 mi SW 5.8 mph - N/A   Clear
12:35 AM 24.8 °F 16.9 °F 19.4 °F 80% 30.20 in 10.0 mi SSW 6.9 mph - N/A   Clear
12:55 AM 24.8 °F 20.5 °F 19.4 °F 80% 30.19 in 10.0 mi SSW 3.5 mph - N/A   Clear
1:15 AM 24.8 °F 16.9 °F 19.4 °F 80% 30.17 in 10.0 mi SSW 6.9 mph - N/A   Clear
1:35 AM 26.6 °F 20.0 °F 19.4 °F 74% 30.17 in 10.0 mi SSW 5.8 mph - N/A   Clear
1:55 AM 26.6 °F 19.1 °F 19.4 °F 74% 30.15 in 10.0 mi SSW 6.9 mph - N/A   Clear
2:15 AM 26.6 °F 19.1 °F 19.4 °F 74% 30.15 in 10.0 mi SSW 6.9 mph - N/A   Clear
2:35 AM 26.6 °F 19.1 °F 19.4 °F 74% 30.15 in 10.0 mi SSW 6.9 mph - N/A   Clear
2:55 AM 28.4 °F 19.7 °F 19.4 °F 69% 30.14 in 10.0 mi SSW 9.2 mph 16.1 mph N/A   Clear
3:15 AM 28.4 °F 19.7 °F 19.4 °F 69% 30.13 in 10.0 mi SSW 9.2 mph 16.1 mph N/A   Clear
3:35 AM 28.4 °F 19.1 °F 21.2 °F 74% 30.13 in 10.0 mi SSW 10.4 mph 16.1 mph N/A   Clear
3:55 AM 28.4 °F 19.7 °F 21.2 °F 74% 30.12 in 10.0 mi SSW 9.2 mph 16.1 mph N/A   Clear
4:15 AM 28.4 °F 19.1 °F 21.2 °F 74% 30.11 in 10.0 mi SW 10.4 mph 17.3 mph N/A   Clear
4:35 AM 30.2 °F 21.9 °F 21.2 °F 69% 30.10 in 10.0 mi SSW 9.2 mph 17.3 mph N/A   Clear
4:55 AM 28.4 °F 19.7 °F 21.2 °F 74% 30.08 in 10.0 mi SW 9.2 mph - N/A   Clear
5:15 AM 30.2 °F 21.9 °F 21.2 °F 69% 30.09 in 10.0 mi SW 9.2 mph 16.1 mph N/A   Clear
5:35 AM 30.2 °F 21.3 °F 21.2 °F 69% 30.08 in 10.0 mi SW 10.4 mph - N/A   Clear
5:55 AM 30.2 °F 21.3 °F 21.2 °F 69% 30.09 in 10.0 mi SW 10.4 mph 19.6 mph N/A   Clear
6:15 AM 30.2 °F 21.9 °F 21.2 °F 69% 30.08 in 10.0 mi SW 9.2 mph 18.4 mph N/A   Clear
6:35 AM 30.2 °F 23.4 °F 21.2 °F 69% 30.08 in 10.0 mi SW 6.9 mph 18.4 mph N/A   Clear
6:55 AM 30.2 °F 21.3 °F 21.2 °F 69% 30.08 in 10.0 mi SW 10.4 mph 16.1 mph N/A   Clear
7:35 AM 30.2 °F 21.9 °F 21.2 °F 69% 30.07 in 10.0 mi SW 9.2 mph - N/A   Clear
7:55 AM 30.2 °F 22.6 °F 21.2 °F 69% 30.07 in 10.0 mi SW 8.1 mph - N/A   Clear
8:35 AM 30.2 °F 22.6 °F 21.2 °F 69% 30.06 in 10.0 mi SSW 8.1 mph - N/A   Clear
9:15 AM 30.2 °F 21.9 °F 21.2 °F 69% 30.05 in 10.0 mi SW 9.2 mph - N/A   Clear
9:35 AM 32.0 °F 23.6 °F 21.2 °F 64% 30.05 in 10.0 mi SW 10.4 mph 19.6 mph N/A   Clear
9:55 AM 32.0 °F 23.6 °F 21.2 °F 64% 30.06 in 10.0 mi SW 10.4 mph 16.1 mph N/A   Clear
10:15 AM 32.0 °F 23.6 °F 21.2 °F 64% 30.06 in 10.0 mi SW 10.4 mph 18.4 mph N/A   Clear
10:35 AM 32.0 °F 24.2 °F 23.0 °F 69% 30.06 in 10.0 mi SW 9.2 mph 20.7 mph N/A   Mostly Cloudy
10:55 AM 32.0 °F 24.2 °F 23.0 °F 69% 30.05 in 10.0 mi SW 9.2 mph 16.1 mph N/A   Scattered Clouds
11:15 AM 33.8 °F 25.8 °F 23.0 °F 65% 30.05 in 10.0 mi SW 10.4 mph 16.1 mph N/A   Clear
11:35 AM 33.8 °F 25.8 °F 23.0 °F 65% 30.05 in 10.0 mi SW 10.4 mph - N/A   Scattered Clouds
11:55 AM 33.8 °F 25.8 °F 23.0 °F 65% 30.03 in 10.0 mi SW 10.4 mph 16.1 mph N/A   Clear
12:15 PM 33.8 °F 27.0 °F 23.0 °F 65% 30.03 in 10.0 mi SW 8.1 mph - N/A   Mostly Cloudy
12:35 PM 33.8 °F 24.3 °F 23.0 °F 65% 30.02 in 10.0 mi SW 13.8 mph 20.7 mph N/A   Mostly Cloudy
12:55 PM 33.8 °F 26.4 °F 23.0 °F 65% 30.01 in 10.0 mi SW 9.2 mph 17.3 mph N/A   Scattered Clouds
1:15 PM 33.8 °F 25.8 °F 24.8 °F 70% 30.00 in 10.0 mi SW 10.4 mph 17.3 mph N/A   Scattered Clouds
1:35 PM 33.8 °F 25.3 °F 26.6 °F 75% 29.99 in 10.0 mi SW 11.5 mph 20.7 mph N/A   Mostly Cloudy
1:55 PM 32.0 °F 23.6 °F 28.4 °F 87% 29.99 in 10.0 mi SW 10.4 mph 19.6 mph N/A   Mostly Cloudy
2:15 PM 32.0 °F 23.6 °F 28.4 °F 87% 29.99 in 10.0 mi SW 10.4 mph 18.4 mph N/A   Overcast
2:35 PM 32.0 °F 22.5 °F 28.4 °F 87% 30.00 in 5.0 mi SW 12.7 mph 19.6 mph N/A Snow Light Snow
2:55 PM 32.0 °F 23.6 °F 28.4 °F 87% 30.00 in 1.5 mi SW 10.4 mph 18.4 mph N/A Snow Light Snow
3:15 PM 32.0 °F 23.6 °F 30.2 °F 93% 30.01 in 1.0 mi WSW 10.4 mph 16.1 mph N/A Snow Light Snow
3:35 PM 32.0 °F 24.2 °F 30.2 °F 93% 30.00 in 0.8 mi WSW 9.2 mph - N/A Snow Light Snow
3:55 PM 32.0 °F 24.8 °F 30.2 °F 93% 30.00 in 1.8 mi WSW 8.1 mph - N/A Snow Light Snow
4:15 PM 32.0 °F 24.8 °F 30.2 °F 93% 30.00 in 2.5 mi WSW 8.1 mph - N/A Snow Light Snow
4:35 PM 32.0 °F 23.6 °F 30.2 °F 93% 30.01 in 2.5 mi SW 10.4 mph - N/A Snow Light Snow
4:55 PM 32.0 °F 23.6 °F 30.2 °F 93% 30.00 in 2.5 mi WSW 10.4 mph - N/A Snow Light Snow
5:15 PM 32.0 °F 23.6 °F 30.2 °F 93% 30.01 in 3.0 mi SW 10.4 mph - N/A Snow Light Snow
5:35 PM 32.0 °F 25.6 °F 30.2 °F 93% 30.00 in 4.0 mi WSW 6.9 mph - N/A Snow Light Snow
6:15 PM 32.0 °F 24.8 °F 30.2 °F 93% 30.00 in 7.0 mi WSW 8.1 mph - N/A Snow Light Snow
6:35 PM 32.0 °F 24.8 °F 30.2 °F 93% 30.01 in 4.0 mi WSW 8.1 mph - N/A Snow Light Snow
6:55 PM 32.0 °F 25.6 °F 30.2 °F 93% 30.01 in 4.0 mi WSW 6.9 mph - N/A Snow Light Snow
7:15 PM 32.0 °F 25.6 °F 30.2 °F 93% 30.00 in 5.0 mi WSW 6.9 mph - N/A Snow Light Snow
7:35 PM 32.0 °F 24.8 °F 30.2 °F 93% 30.01 in 10.0 mi WSW 8.1 mph - N/A Snow Light Snow
7:55 PM 32.0 °F 25.6 °F 30.2 °F 93% 30.02 in 10.0 mi WSW 6.9 mph - N/A   Overcast
8:15 PM 32.0 °F 24.8 °F 30.2 °F 93% 30.03 in 10.0 mi West 8.1 mph - N/A   Overcast
8:35 PM 32.0 °F 24.8 °F 30.2 °F 93% 30.02 in 10.0 mi West 8.1 mph - N/A   Overcast
8:55 PM 32.0 °F 24.8 °F 30.2 °F 93% 30.02 in 10.0 mi West 8.1 mph - N/A   Overcast
9:35 PM 32.0 °F 25.6 °F 28.4 °F 87% 30.03 in 10.0 mi West 6.9 mph - N/A   Overcast
9:55 PM 32.0 °F 24.8 °F 28.4 °F 87% 30.02 in 10.0 mi West 8.1 mph - N/A   Overcast
10:15 PM 32.0 °F 25.6 °F 28.4 °F 87% 30.01 in 10.0 mi West 6.9 mph - N/A   Overcast
10:35 PM 32.0 °F 24.8 °F 28.4 °F 87% 30.01 in 10.0 mi West 8.1 mph - N/A   Overcast
10:55 PM 32.0 °F 25.6 °F 28.4 °F 87% 30.03 in 10.0 mi WSW 6.9 mph - N/A   Overcast
11:15 PM 32.0 °F 26.4 °F 28.4 °F 87% 30.03 in 10.0 mi WSW 5.8 mph - N/A   Overcast
11:35 PM 32.0 °F 27.5 °F 26.6 °F 80% 30.04 in 10.0 mi West 4.6 mph - N/A   Overcast
11:55 PM 32.0 °F 25.6 °F 28.4 °F 87% 30.03 in 10.0 mi West 6.9 mph - N/A   Overcast